Location: Geçitköy
(36.7327°N, 29.8010°E)
Time: 19:20:16
(UTC+00:00)

Cosmos 1515 Rocket - Pass Details

Date: 12 January 2026
Orbit: 599 x 623 km, 82.5° (Epoch: 11 February)

Event Time Altitude Azimuth Distance (km) Brightness Sun altitude
Rises 15:39:10 0° 162° (SSE) 2,870 7.0 -7.0°
Reaches altitude 10° 15:41:34 10° 152° (SSE) 1,973 6.1 -7.5°
Maximum altitude 15:45:25 31° 90° (E) 1,089 4.3 -8.2°
Drops below altitude 10° 15:49:19 10° 29° (NNE) 1,995 5.7 -8.9°
Sets 15:51:44 0° 19° (NNE) 2,908 6.6 -9.4°
